CW2049 Weather Reports


time (UTC)temp
C
wind
direction
speed
KPH
gust
KPH
rain 1hr
cm
rain 24hr
cm
rain mn
cm
humidity
%
barometer
mb
20260505124523 8 359 0.0 0.0 0.00 0.00 0.00 81 1009.9
20260505123022 8 359 0.0 0.0 0.00 0.00 0.00 81 1009.7
20260505121519 8 359 0.0 0.0 0.00 0.00 0.00 80 1009.5
20260505120018 9 359 0.0 0.0 0.00 0.00 0.00 79 1009.3
20260505114514 9 359 0.0 0.0 0.00 0.00 0.00 78 1009.2
20260505113012 10 359 0.0 0.0 0.00 0.00 0.00 78 1009.1
20260505111510 10 359 0.0 0.0 0.00 0.00 0.00 78 1009.1
20260505101501 11 359 0.0 0.0 0.00 0.00 0.00 74 1008.5
20260505100059 11 359 0.0 0.0 0.00 0.00 0.00 72 1008.4
20260505094557 11 359 0.0 0.0 0.00 0.00 0.00 73 1008.4
20260505093056 11 359 0.0 0.0 0.00 0.00 0.00 72 1008.2
20260505091606 11 359 0.0 0.0 0.00 0.00 0.00 73 1008.1
20260505090053 11 359 0.0 0.0 0.00 0.00 0.00 72 1008.2
20260505084552 11 359 0.0 0.0 0.00 0.00 0.00 73 1007.9
20260505083049 11 359 0.0 0.0 0.00 0.00 0.00 72 1007.8
20260505081547 12 359 0.0 0.0 0.00 0.00 0.00 68 1007.8
20260505080046 12 359 0.0 0.0 0.00 0.00 0.00 66 1007.7
20260505074539 13 359 0.0 0.0 0.00 0.00 0.00 64 1007.4
20260505073042 13 359 0.0 0.0 0.00 0.00 0.00 63 1007.3
20260505071534 13 359 0.0 0.0 0.00 0.00 0.00 61 1007.1
20260505070039 15 359 0.0 0.0 0.00 0.00 0.00 59 1006.9
20260505064530 15 359 0.0 0.0 0.00 0.00 0.00 58 1006.7
20260505063029 15 359 0.0 0.0 0.00 0.00 0.00 56 1006.4
20260505061536 15 359 0.0 0.0 0.00 0.00 0.00 57 1006.4
20260505060028 15 359 0.0 0.0 0.00 0.00 0.00 56 1006.3
20260505054534 15 359 0.0 0.0 0.00 0.00 0.00 56 1006.2
20260505053030 16 359 0.0 0.0 0.00 0.00 0.00 55 1006.2
20260505051528 16 359 0.0 0.0 0.00 0.00 0.00 50 1006.1
20260505041537 16 359 0.0 0.0 0.00 0.00 0.00 54 1005.8
20260505040036 17 359 0.0 0.0 0.00 0.00 0.00 50 1005.7
20260505034525 17 359 0.0 0.0 0.00 0.00 0.00 48 1005.6
20260505033024 18 359 0.0 0.0 0.00 0.00 0.00 44 1005.5
20260505031536 20 310 0.0 0.0 0.00 0.00 0.00 42 1005.2
20260505030023 21 359 0.0 0.0 0.00 0.00 0.00 35 1005.0
20260505024522 22 310 0.0 0.0 0.00 0.00 0.00 33 1004.8
20260505023022 22 310 0.0 0.0 0.00 0.00 0.00 31 1004.6
20260505021522 23 313 0.0 0.0 0.00 0.00 0.00 31 1004.4
20260505020021 23 289 0.0 3.2 0.00 0.00 0.00 31 1004.3
20260505014528 23 293 0.0 0.0 0.00 0.00 0.00 31 1004.3
20260505013020 24 293 0.0 0.0 0.00 0.00 0.00 30 1004.3
20260505011520 24 302 0.0 12.9 0.00 0.00 0.00 28 1004.3
20260505010024 25 295 0.0 16.1 0.00 0.00 0.00 29 1004.2
20260505004524 25 283 0.0 8.0 0.00 0.00 0.00 28 1004.1
20260505003018 26 335 0.0 8.0 0.00 0.00 0.00 26 1004.1
20260505001518 26 333 4.8 20.9 0.00 0.00 0.00 27 1004.1
20260505000017 26 308 1.6 19.3 0.00 0.00 0.00 26 1004.0
20260504234516 26 359 3.2 25.7 0.00 0.00 0.00 24 1004.1
20260504233016 26 299 1.6 14.5 0.00 0.00 0.00 24 1004.0
20260504231515 26 310 1.6 22.5 0.00 0.00 0.00 24 1003.9
20260504230015 26 339 1.6 11.3 0.00 0.00 0.00 24 1003.9
20260504224518 27 309 9.7 25.7 0.00 0.00 0.00 23 1003.9
20260504223025 27 324 4.8 17.7 0.00 0.00 0.00 23 1004.1
20260504221511 27 347 0.0 9.7 0.00 0.00 0.00 23 1004.2
20260504220015 27 35 0.0 20.9 0.00 0.00 0.00 24 1004.4
20260504214508 27 301 3.2 20.9 0.00 0.00 0.00 24 1004.5
20260504213019 27 289 6.4 19.3 0.00 0.00 0.00 24 1004.7
20260504211507 27 336 9.7 22.5 0.00 0.00 0.00 26 1004.6
20260504210005 27 297 6.4 17.7 0.00 0.00 0.00 24 1004.7
20260504204512 26 324 11.3 22.5 0.00 0.00 0.00 25 1004.7
20260504203002 26 315 4.8 17.7 0.00 0.00 0.00 30 1004.7
20260504201601 26 313 1.6 17.7 0.00 0.00 0.00 29 1004.9
20260504200115 26 320 0.0 9.7 0.00 0.00 0.00 29 1005.0
20260504194552 25 312 4.8 12.9 0.00 0.00 0.00 31 1005.1
20260504193054 25 324 1.6 8.0 0.00 0.00 0.00 32 1005.3
20260504191555 24 314 0.0 9.7 0.00 0.00 0.00 31 1005.5
20260504190047 24 314 0.0 3.2 0.00 0.00 0.00 31 1005.6
20260504184545 24 312 0.0 0.0 0.00 0.00 0.00 34 1005.8
20260504183039 23 310 0.0 1.6 0.00 0.00 0.00 33 1006.1
20260504181543 23 307 0.0 0.0 0.00 0.00 0.00 33 1006.3
20260504180035 23 168 0.0 0.0 0.00 0.00 0.00 32 1006.5
20260504174529 21 168 0.0 0.0 0.00 0.00 0.00 38 1006.7
20260504173025 21 168 0.0 0.0 0.00 0.00 0.00 38 1006.9
20260504171521 20 168 0.0 0.0 0.00 0.00 0.00 41 1007.1